Regional Weather Roundup
Issued by NWS

Home | Current Version | Previous Version | Text Only | Print | Product List | Glossary Off
Versions: 1 2 3 4 5 6 7 8 9 10 11 12 13 14 15 16 17 18 19 20 21 22 23 24 25 26 27 28 29 30 31 32 33 34 35 36 37 38 39 40 41 42 43 44 45 46 47 48 49 50

000
ASUS43 KIND 290109
RWRIN

WEATHER ROUNDUP FOR INDIANA
NATIONAL WEATHER SERVICE INDIANAPOLIS IN
900 PM EDT WED SEP 28 2016

NOTE: "FAIR" INDICATES FEW OR NO CLOUDS BELOW 12,000 FEET WITH NO
SIGNIFICANT WEATHER AND/OR OBSTRUCTIONS TO VISIBILITY.

* - STATION DOES NOT REPORT WEATHER SUCH AS PRECIPITATION OR FOG.

+ - STATION NOT QUALITY CONTROLLED BY THE NATIONAL WEATHER SERVICE.
    USE DATA WITH CAUTION...ESPECIALLY DEWPOINT AND RELATIVE
    HUMIDITY OBSERVATIONS.

INZ001>003-010>013-019-020-290200-
NORTHWEST INDIANA

CITY           SKY/WX    TMP DP  RH WIND       PRES   REMARKS
GARY /AIRPORT/ CLOUDY    59  55  88 N15       30.03S
KNOX *+        MOCLDY    52  37  58 NW3       29.99R
LA PORTE +     CLOUDY    57  55  90 N3        30.01R
MICHIGAN CITY+ CLOUDY    59  50  72 CALM      30.01R
MONTICELLO +   RAIN      56  48  75 NW5       29.98R
RENSSELAER +   CLOUDY    54  54 100 NW5       30.01R
VALPARAISO     CLOUDY    57  50  77 N5        30.01R

$$

LMZ046-743>745-290200-
SOUTHERN LAKE MICHIGAN

STATION/POSITION TIME  TEMP    WIND        PRES    WAVE
                       AIR SEA DIR/SP/G            HT
                 (UTC) (F)     (DEG/KT/KT) (MB)    (FT)
BURNS HARBOR     0040   62      20/ 24/ 29 1015.6R
MICHIGAN CITY    0040   60      20/ 27/ 31   N/A
5NW MICH CITY    0100   61 66   50/ 21/ 29   N/A     6

$$

INZ004-005-014>016-021>024-290200-
NORTH CENTRAL INDIANA

CITY           SKY/WX    TMP DP  RH WIND       PRES   REMARKS
ELKHART        CLOUDY   N/A N/A N/A N7        29.99R
GOSHEN         LGT RAIN  55  51  86 N6        29.97S
LOGANSPORT +   CLOUDY    54  52  94 NW3       29.98S
PERU/GRISSOM   DRIZZLE   56  52  85 NW3       29.96R
ROCHESTER +    MOCLDY    55  54  94 N3        29.98R
SOUTH BEND     CLOUDY    55  53  93 N9        30.01R
WARSAW +       CLOUDY    54  48  82 N3        29.97S

$$

INZ006>009-017-018-025>027-290200-
NORTHEAST INDIANA

CITY           SKY/WX    TMP DP  RH WIND       PRES   REMARKS
ANGOLA *+        N/A     55  45  67 N9        29.96S
AUBURN +       CLOUDY    54  52  94 CALM      29.97R
FORT WAYNE     CLOUDY    54  52  93 NW5       29.95R
HUNTINGTON +   DRIZZLE   53  52  96 N6        29.96R
KENDALLVILLE + RAIN      54  53  97 N7        29.96S

$$

INZ028-029-035-036-043>045-051>053-290200-
WEST CENTRAL INDIANA

CITY           SKY/WX    TMP DP  RH WIND       PRES   REMARKS
CRAWFORDSVL +  MOCLDY    53  50  90 NW7       29.99S
GREENCASTLE +  CLOUDY    55  50  82 CALM      30.00R
LAFAYETTE      NOT AVBL
TERRE HAUTE    CLOUDY    57  49  74 W5        30.01R

$$

INZ030>032-037>040-046>048-054>057-064-065-290200-
CENTRAL INDIANA

CITY           SKY/WX    TMP DP  RH WIND       PRES   REMARKS
FISHERS *+     CLOUDY    54  54 100 NW3       29.97
FRANKFORT +    CLOUDY    58  53  81 N5        30.00R
GREENWOOD *+   CLOUDY    57  55  94 NW5       29.98R
INDIANAPOLIS   CLOUDY    56  49  77 NW9       29.97R
-EAGLE CREEK   CLOUDY    57  50  77 NW7       29.97R
KOKOMO *+      LGT RAIN  55  53  93 NW5       29.98R
MARION +       CLOUDY    55  50  84 N6        29.97R
MT COMFORT *+  CLOUDY    55  52  88 NW10      29.97R
SHELBYVILLE    CLOUDY    58  52  80 W8        29.96R
ZIONSVILLE +   CLOUDY    55  49  82 N7        29.98R

$$

INZ033-034-041-042-049-050-058-059-290200-
EAST CENTRAL INDIANA

CITY           SKY/WX    TMP DP  RH WIND       PRES   REMARKS
MUNCIE         CLOUDY    56  53  90 N8        29.95R

$$

INZ060-061-067>069-081>083-085>088-290200-
SOUTHWEST INDIANA

CITY           SKY/WX    TMP DP  RH WIND       PRES   REMARKS
EVANSVILLE     CLEAR     57  46  66 W5        30.04R
HUNTINGBURG *+   N/A     57  45  62 NW8       30.01R
WASHINGTON +   CLOUDY    58  48  70 MISG      30.01R

$$

INZ062-063-066-070>080-084-089>092-290200-
SOUTH CENTRAL AND SOUTHEAST INDIANA

CITY           SKY/WX    TMP DP  RH WIND       PRES   REMARKS
BLOOMINGTON    CLOUDY    57  48  72 NW7       29.99R
MADISON *+     CLEAR     54  50  87 CALM      29.98R
NORTH VERNON + CLEAR    N/A N/A N/A W5        29.96
SEYMOUR +      CLOUDY    59  52  77 W7        29.97R

$$





USA.gov is the U.S. government's official web portal to all federal, state and local government web resources and services.